TimeCST,TemperatureF,Dew PointF,Humidity,Sea Level PressureIn,VisibilityMPH,Wind Direction,Wind SpeedMPH,Gust SpeedMPH,PrecipitationIn,Events,Conditions,WindDirDegrees,DateUTC
12:15 AM,46.4,37.4,71,30.16,10.0,ESE,8.1,-,N/A,,Clear,110,2012-11-29 06:15:00
12:35 AM,46.4,37.4,71,30.15,10.0,ESE,9.2,-,N/A,,Clear,110,2012-11-29 06:35:00
12:55 AM,46.4,37.4,71,30.16,10.0,ESE,9.2,-,N/A,,Clear,120,2012-11-29 06:55:00
1:15 AM,46.4,37.4,71,30.15,10.0,ESE,9.2,-,N/A,,Clear,120,2012-11-29 07:15:00
1:35 AM,44.6,37.4,76,30.15,10.0,SE,9.2,-,N/A,,Clear,130,2012-11-29 07:35:00
1:55 AM,44.6,35.6,71,30.14,10.0,SE,9.2,-,N/A,,Clear,130,2012-11-29 07:55:00
2:15 AM,42.8,35.6,76,30.15,10.0,East,6.9,-,N/A,,Clear,100,2012-11-29 08:15:00
2:35 AM,42.8,35.6,76,30.15,10.0,ESE,8.1,-,N/A,,Clear,110,2012-11-29 08:35:00
2:55 AM,42.8,35.6,76,30.15,10.0,ESE,8.1,-,N/A,,Clear,110,2012-11-29 08:55:00
3:15 AM,42.8,35.6,76,30.16,10.0,East,8.1,-,N/A,,Clear,100,2012-11-29 09:15:00
3:35 AM,42.8,35.6,76,30.15,10.0,ESE,6.9,-,N/A,,Clear,110,2012-11-29 09:35:00
3:55 AM,41.0,35.6,81,30.15,10.0,ESE,9.2,-,N/A,,Clear,110,2012-11-29 09:55:00
4:15 AM,42.8,35.6,76,30.14,10.0,ESE,8.1,-,N/A,,Clear,120,2012-11-29 10:15:00
4:35 AM,41.0,35.6,81,30.14,10.0,ESE,8.1,-,N/A,,Clear,120,2012-11-29 10:35:00
4:55 AM,41.0,35.6,81,30.13,10.0,SE,9.2,-,N/A,,Clear,140,2012-11-29 10:55:00
5:15 AM,41.0,35.6,81,30.13,10.0,SE,9.2,-,N/A,,Clear,130,2012-11-29 11:15:00
5:35 AM,41.0,35.6,81,30.12,10.0,SE,6.9,-,N/A,,Clear,130,2012-11-29 11:35:00
6:15 AM,41.0,35.6,81,30.12,10.0,SE,9.2,-,N/A,,Clear,140,2012-11-29 12:15:00
6:35 AM,41.0,35.6,81,30.12,10.0,SSE,11.5,-,N/A,,Clear,150,2012-11-29 12:35:00
6:55 AM,41.0,35.6,81,30.11,10.0,SE,10.4,-,N/A,,Clear,140,2012-11-29 12:55:00
7:15 AM,41.0,35.6,81,30.11,10.0,SSE,11.5,-,N/A,,Clear,150,2012-11-29 13:15:00
7:35 AM,42.8,37.4,81,30.11,10.0,SSE,11.5,-,N/A,,Clear,150,2012-11-29 13:35:00
7:55 AM,44.6,37.4,76,30.11,10.0,SSE,13.8,-,N/A,,Clear,160,2012-11-29 13:55:00
8:15 AM,44.6,39.2,81,30.11,10.0,SSE,13.8,-,N/A,,Clear,150,2012-11-29 14:15:00
8:35 AM,46.4,39.2,76,30.11,10.0,SSE,13.8,-,N/A,,Clear,150,2012-11-29 14:35:00
8:55 AM,50.0,41.0,71,30.11,10.0,SSE,12.7,-,N/A,,Clear,160,2012-11-29 14:55:00
9:15 AM,50.0,41.0,71,30.12,10.0,South,15.0,-,N/A,,Clear,170,2012-11-29 15:15:00
9:35 AM,51.8,41.0,67,30.12,10.0,South,15.0,-,N/A,,Clear,170,2012-11-29 15:35:00
10:15 AM,57.2,42.8,59,30.11,10.0,South,17.3,21.9,N/A,,Clear,190,2012-11-29 16:15:00
10:35 AM,59.0,42.8,55,30.11,10.0,South,17.3,-,N/A,,Clear,190,2012-11-29 16:35:00
10:55 AM,59.0,42.8,55,30.10,10.0,South,18.4,24.2,N/A,,Clear,180,2012-11-29 16:55:00
11:15 AM,60.8,42.8,52,30.09,10.0,South,18.4,24.2,N/A,,Clear,190,2012-11-29 17:15:00
11:55 AM,64.4,42.8,45,30.08,10.0,South,13.8,21.9,N/A,,Clear,170,2012-11-29 17:55:00
12:15 PM,64.4,41.0,42,30.06,10.0,SSW,12.7,-,N/A,,Clear,200,2012-11-29 18:15:00
12:35 PM,64.4,41.0,42,30.06,10.0,South,13.8,-,N/A,,Clear,180,2012-11-29 18:35:00
12:55 PM,68.0,41.0,37,30.05,10.0,South,13.8,-,N/A,,Clear,190,2012-11-29 18:55:00
1:15 PM,68.0,41.0,37,30.05,10.0,South,15.0,20.7,N/A,,Clear,170,2012-11-29 19:15:00
1:35 PM,68.0,41.0,37,30.03,10.0,South,16.1,-,N/A,,Clear,170,2012-11-29 19:35:00
1:55 PM,69.8,41.0,35,30.02,10.0,South,16.1,21.9,N/A,,Clear,180,2012-11-29 19:55:00
2:15 PM,69.8,41.0,35,30.00,10.0,South,18.4,24.2,N/A,,Clear,170,2012-11-29 20:15:00
2:35 PM,69.8,41.0,35,30.00,10.0,South,15.0,23.0,N/A,,Clear,180,2012-11-29 20:35:00
2:55 PM,69.8,41.0,35,29.99,10.0,South,16.1,-,N/A,,Clear,180,2012-11-29 20:55:00
3:15 PM,71.6,41.0,33,29.99,10.0,SSE,19.6,-,N/A,,Clear,160,2012-11-29 21:15:00
3:35 PM,71.6,41.0,33,29.98,10.0,South,18.4,23.0,N/A,,Clear,170,2012-11-29 21:35:00
3:55 PM,71.6,41.0,33,29.99,10.0,South,12.7,21.9,N/A,,Clear,180,2012-11-29 21:55:00
4:15 PM,71.6,42.8,35,29.99,10.0,South,12.7,-,N/A,,Clear,170,2012-11-29 22:15:00
4:35 PM,69.8,42.8,38,29.99,10.0,South,13.8,-,N/A,,Clear,170,2012-11-29 22:35:00
4:55 PM,69.8,42.8,38,29.99,10.0,SSE,11.5,-,N/A,,Clear,160,2012-11-29 22:55:00
5:15 PM,68.0,42.8,40,29.99,10.0,SSE,8.1,-,N/A,,Clear,150,2012-11-29 23:15:00
5:35 PM,64.4,42.8,45,29.99,10.0,SE,6.9,-,N/A,,Clear,140,2012-11-29 23:35:00
5:55 PM,62.6,42.8,48,29.99,10.0,East,8.1,-,N/A,,Clear,100,2012-11-29 23:55:00
6:15 PM,60.8,42.8,52,30.00,10.0,East,9.2,-,N/A,,Clear,100,2012-11-30 00:15:00
6:35 PM,59.0,42.8,55,30.00,10.0,East,9.2,-,N/A,,Clear,100,2012-11-30 00:35:00
6:55 PM,59.0,42.8,55,30.01,10.0,ESE,11.5,-,N/A,,Clear,110,2012-11-30 00:55:00
7:15 PM,55.4,42.8,63,30.01,10.0,ESE,9.2,-,N/A,,Clear,110,2012-11-30 01:15:00
7:35 PM,55.4,42.8,63,30.02,10.0,ESE,9.2,-,N/A,,Clear,110,2012-11-30 01:35:00
7:55 PM,55.4,42.8,63,30.02,10.0,East,10.4,-,N/A,,Clear,100,2012-11-30 01:55:00
8:15 PM,55.4,44.6,67,30.02,10.0,ESE,12.7,-,N/A,,Clear,110,2012-11-30 02:15:00
8:35 PM,55.4,44.6,67,30.02,10.0,ESE,12.7,-,N/A,,Clear,110,2012-11-30 02:35:00
8:55 PM,55.4,44.6,67,30.02,10.0,ESE,11.5,-,N/A,,Clear,110,2012-11-30 02:55:00
9:15 PM,55.4,44.6,67,30.02,10.0,ESE,11.5,-,N/A,,Clear,110,2012-11-30 03:15:00
9:35 PM,53.6,44.6,72,30.03,10.0,ESE,10.4,-,N/A,,Clear,110,2012-11-30 03:35:00
9:55 PM,53.6,44.6,72,30.03,10.0,ESE,11.5,-,N/A,,Clear,110,2012-11-30 03:55:00
10:15 PM,53.6,44.6,72,30.03,10.0,ESE,9.2,-,N/A,,Clear,120,2012-11-30 04:15:00
10:35 PM,53.6,44.6,72,30.03,10.0,ESE,9.2,-,N/A,,Clear,110,2012-11-30 04:35:00
10:55 PM,51.8,44.6,76,30.03,10.0,East,10.4,-,N/A,,Clear,100,2012-11-30 04:55:00
11:15 PM,51.8,44.6,76,30.03,10.0,ESE,11.5,-,N/A,,Clear,120,2012-11-30 05:15:00
11:35 PM,50.0,42.8,76,30.04,10.0,ESE,9.2,-,N/A,,Clear,120,2012-11-30 05:35:00
11:55 PM,50.0,44.6,82,30.03,10.0,ESE,8.1,-,N/A,,Clear,120,2012-11-30 05:55:00